This is the latest recevied weather packets stored in our database for station/object KA9CBS. If no packets are shown the sender has not sent any weather packets the latest 10 day(s).
| Time | Temp. | Humidity | Pressure | Rain* | Wind** | Luminosity | Snow |
|---|---|---|---|---|---|---|---|
| 1787429058 | 28.33° C | 61% | 1018.1 hPa | 0 mm | - | 631 W/m² | - |
| 1787428758 | 28.33° C | 60% | 1018.1 hPa | 0 mm | - | 633 W/m² | - |
| 1787428454 | 28.89° C | 61% | 1018.3 hPa | 0 mm | - | 633 W/m² | - |
| 1787428153 | 28.33° C | 64% | 1018.3 hPa | 0 mm | - | 622 W/m² | - |
| 1787427848 | 28.33° C | 63% | 1018.3 hPa | 0 mm | - | 594 W/m² | - |
| 1787427545 | 28.33° C | 66% | 1018.3 hPa | 0 mm | - | 469 W/m² | - |
| 1787427241 | 28.33° C | 63% | 1018.1 hPa | 0 mm | - | 689 W/m² | - |
| 1787426936 | 28.33° C | 62% | 1018.3 hPa | 0 mm | - | 654 W/m² | - |
| 1787426631 | 28.33° C | 62% | 1018.3 hPa | 0 mm | - | 641 W/m² | - |
| 1787426327 | 27.78° C | 65% | 1018.3 hPa | 0 mm | - | 665 W/m² | - |
| 1787426024 | 27.78° C | 65% | 1018.2 hPa | 0 mm | - | 662 W/m² | - |
| 1787425719 | 28.33° C | 65% | 1018.4 hPa | 0 mm | - | 699 W/m² | - |
| 1787425415 | 28.33° C | 67% | 1018.6 hPa | 0 mm | - | 661 W/m² | - |
| 1787425110 | 28.33° C | 68% | 1018.5 hPa | 0 mm | - | 635 W/m² | - |
| 1787424810 | 27.78° C | 65% | 1018.5 hPa | 0 mm | - | 636 W/m² | - |
| 1787424504 | 27.78° C | 67% | 1018.7 hPa | 0 mm | - | 667 W/m² | - |
| 1787424200 | 28.33° C | 65% | 1018.7 hPa | 0 mm | - | 674 W/m² | - |
| 1787423895 | 27.78° C | 67% | 1018.7 hPa | 0 mm | - | 645 W/m² | - |
| 1787423592 | 27.78° C | 71% | 1018.6 hPa | 0 mm | - | 622 W/m² | - |
| 1787423287 | 27.78° C | 66% | 1018.7 hPa | 0 mm | - | 663 W/m² | - |
| 1787422983 | 27.78° C | 68% | 1018.5 hPa | 0 mm | - | 676 W/m² | - |
| 1787422678 | 27.78° C | 68% | 1018.4 hPa | 0 mm | - | 676 W/m² | - |
| 1787422375 | 27.22° C | 68% | 1018.7 hPa | 0 mm | - | 654 W/m² | - |
| 1787422070 | 27.78° C | 69% | 1018.7 hPa | 0 mm | - | 628 W/m² | - |
| 1787421767 | 27.78° C | 70% | 1018.7 hPa | 0 mm | - | 634 W/m² | - |
* Rain latest hour (hover to see other rain measurements)
** Current wind speed in m/s (hover to see current wind gust speed)